Theta_e
355 355 355 354 355 353 354 354 355 355 358 355 354 355 355 356 355 355 357 356 357 357 357 356 357 359 358 358 357 358 359 359 360 360 361 360 359 360 359 360 360 359 360 359 360 358 357 357 359 359 361 357 357 357 355 353 358 361 360 363 358 357 353 349 344 345 351 358 357 356 358 358 355 354 354 354 352 353 358 354 356 352 349 348 350
355 354 355 355 355 354 355 354 354 353 352 354 353 355 355 356 355 355 356 356 357 356 359 358 358 357 357 356 356 358 359 360 360 360 361 360 360 362 360 360 358 358 358 357 359 360 358 358 359 361 361 359 358 355 353 352 352 354 359 355 355 356 355 350 347 347 346 353 355 360 359 359 353 356 353 352 351 355 354 352 354 351 348 347 347
354 354 354 353 354 355 354 354 353 352 351 353 353 354 354 355 355 354 354 356 356 357 358 358 357 357 357 357 356 359 359 360 360 358 360 360 359 358 357 360 359 358 358 357 357 357 356 356 359 360 362 356 356 355 355 352 358 352 352 356 353 356 359 355 352 350 351 351 355 354 354 356 354 353 354 355 355 355 350 350 351 350 350 350 350
352 352 352 352 352 353 352 353 353 352 351 350 352 352 353 354 355 353 353 354 354 355 357 356 359 357 358 358 360 358 358 358 358 357 358 359 359 358 357 359 360 360 359 357 356 356 356 355 355 355 355 353 356 355 355 357 352 362 356 358 356 357 359 360 359 352 353 350 352 355 355 352 352 354 356 357 354 352 351 351 352 352 352 352 350
351 351 351 350 350 350 351 352 352 352 351 350 349 349 350 353 355 353 353 353 353 354 357 358 361 360 359 359 358 358 359 358 358 358 358 359 359 359 357 358 359 359 359 358 365 359 356 354 355 355 354 352 354 356 356 353 352 351 352 354 353 360 363 361 358 357 353 350 350 353 355 354 355 355 356 354 352 349 349 351 354 352 350 351 354
350 350 349 350 348 347 349 350 350 350 350 349 348 348 348 349 354 355 354 353 352 354 356 356 361 358 357 358 358 357 358 359 359 359 358 358 358 359 359 360 358 356 357 358 358 359 359 358 358 358 357 355 353 353 354 352 359 355 353 352 354 357 356 355 357 356 353 351 350 350 350 352 350 350 353 349 346 344 345 346 348 350 351 351 354
355 349 349 348 349 349 348 347 348 349 350 348 348 347 346 346 351 354 355 354 354 353 355 355 358 359 357 358 359 359 358 360 360 360 360 359 357 358 358 359 359 358 358 358 358 358 358 357 357 357 355 354 354 353 352 353 353 351 353 354 357 355 354 354 353 353 353 352 349 349 346 348 349 345 348 349 348 348 346 346 343 347 352 352 350
357 356 353 352 351 352 351 352 352 349 348 349 348 348 346 345 345 352 354 353 353 353 352 353 355 357 357 357 358 359 360 360 359 361 361 360 358 358 357 357 359 359 358 358 359 358 357 356 355 355 355 355 354 354 354 352 354 352 352 352 357 355 355 354 352 349 347 349 346 346 346 346 348 348 351 349 347 344 350 347 344 346 348 349 348
351 353 355 352 352 353 354 355 360 362 360 358 358 360 360 355 354 352 353 354 354 353 353 353 353 353 355 356 358 359 360 360 360 361 361 360 360 357 357 357 357 356 355 354 354 356 357 357 355 354 356 369 370 370 367 365 354 352 357 357 354 352 351 352 350 349 348 348 348 348 347 347 346 346 343 341 339 338 342 350 347 348 349 351 354
352 350 349 348 342 345 351 360 360 358 357 359 360 360 360 359 356 353 356 357 354 353 353 352 351 351 352 354 356 359 358 353 354 356 363 359 357 357 357 357 357 356 355 354 355 356 356 356 357 364 364 363 364 368 369 368 367 358 351 353 353 352 352 350 349 347 346 344 344 345 344 343 343 342 341 342 342 347 349 349 346 349 351 352 353
351 351 350 347 344 347 345 346 351 350 351 351 354 357 359 360 358 356 354 354 354 353 350 350 350 350 351 352 353 356 352 353 349 335 340 356 359 353 351 353 356 357 357 355 354 356 356 355 355 359 367 369 363 367 366 365 367 364 363 364 363 352 348 348 347 346 346 348 348 346 344 341 342 344 345 346 345 349 348 348 350 350 348 346 347
346 349 352 350 347 347 351 351 350 349 348 348 348 349 352 355 357 356 356 354 353 354 352 353 349 352 355 353 350 352 355 352 338 333 334 335 348 356 353 353 357 356 356 355 354 355 353 353 353 352 355 360 360 362 365 368 364 363 361 360 360 363 359 350 346 344 343 343 343 345 345 345 346 346 346 346 348 349 349 351 351 349 350 347 345
346 348 350 350 346 345 347 348 346 349 348 348 347 346 345 345 351 354 356 355 353 353 353 355 353 352 350 348 349 350 349 344 333 332 332 332 334 347 354 354 351 351 353 353 352 352 352 353 353 355 353 357 363 355 353 355 362 358 358 360 361 357 346 346 349 350 347 346 346 345 345 345 343 345 350 352 352 351 352 350 351 350 350 347 346
349 348 348 348 349 350 349 347 346 348 349 348 348 345 343 343 346 352 358 354 350 351 353 352 352 352 354 353 350 347 348 335 326 327 329 331 333 339 344 350 348 345 345 348 351 351 353 353 353 355 358 359 358 361 360 359 360 359 356 353 353 357 360 348 345 346 351 350 346 344 346 347 345 349 356 355 351 351 351 347 348 348 348 348 350
342 343 343 344 346 349 351 351 350 349 350 350 349 348 348 350 352 353 353 351 352 352 353 353 352 351 350 348 347 345 345 331 326 328 327 330 335 347 342 347 353 352 353 351 352 351 349 350 350 353 355 354 355 359 353 356 359 361 360 359 357 357 357 359 360 358 353 351 350 350 350 350 350 351 351 349 349 351 352 351 352 352 353 353 353
341 342 341 342 344 345 346 346 345 346 346 346 346 347 348 347 347 350 351 352 353 357 357 356 353 351 350 348 347 343 337 322 323 324 324 327 332 347 345 349 351 351 350 352 351 351 352 351 351 352 354 346 341 340 350 359 358 357 356 357 358 360 360 359 347 348 358 357 356 355 354 353 347 350 350 350 347 349 355 354 353 351 349 348 348
337 340 342 344 345 346 346 344 343 343 343 344 345 346 344 344 346 347 346 349 351 352 354 354 352 352 351 350 348 345 340 324 318 320 322 325 339 354 354 353 353 352 354 353 352 354 356 352 349 351 352 342 333 325 336 360 355 356 356 357 358 357 354 357 343 336 337 337 334 333 331 330 329 328 327 328 340 345 346 347 347 349 347 346 347
335 336 338 343 344 345 346 345 343 343 342 343 343 344 344 344 343 348 346 346 347 348 351 350 350 351 352 351 348 345 335 324 318 317 318 322 342 354 357 357 356 355 355 355 353 351 356 364 358 346 343 338 325 325 332 353 349 350 351 350 350 350 349 351 354 353 346 345 346 344 342 337 335 335 336 333 329 337 347 348 351 349 348 347 345
333 334 335 338 341 343 344 344 344 343 343 343 344 343 343 344 345 346 345 345 347 347 348 347 347 348 349 349 354 341 334 329 317 318 318 320 339 352 357 355 355 354 354 353 354 352 351 356 356 349 341 332 320 321 327 348 347 347 347 347 346 348 346 346 347 348 350 351 351 352 353 355 358 356 357 357 356 359 352 352 351 349 346 346 346
333 334 335 336 338 340 342 345 345 343 342 343 344 345 346 347 347 346 345 345 345 344 343 344 345 347 349 350 345 338 333 332 328 315 317 319 328 352 355 352 351 352 353 351 352 351 350 347 340 328 323 320 317 317 318 323 341 345 347 347 345 346 343 342 346 349 347 347 347 349 351 354 355 354 355 356 356 357 357 358 355 350 346 345 344
331 332 333 333 333 335 337 342 341 342 344 346 345 344 345 345 345 345 344 344 342 340 340 340 342 343 345 346 339 336 334 331 328 314 314 318 326 338 340 342 344 348 348 350 347 347 347 349 343 327 320 319 317 316 314 317 330 341 343 345 347 340 337 341 342 346 341 343 346 347 351 351 351 351 353 353 353 354 355 355 357 355 350 346 345
329 329 330 330 331 333 334 342 339 339 340 344 343 343 344 346 344 343 343 341 339 339 340 340 338 337 337 339 340 338 339 336 332 320 315 314 318 327 337 337 336 344 345 343 346 347 347 345 346 333 319 320 317 313 311 314 320 334 341 329 322 324 336 342 340 339 340 341 341 345 348 347 349 349 350 349 351 353 353 353 353 354 355 354 348
326 328 328 328 329 330 333 335 339 339 340 342 342 341 342 344 344 344 343 342 340 338 339 339 336 334 332 333 334 336 337 336 334 331 319 314 313 316 322 329 327 342 340 345 347 347 347 345 347 336 317 313 308 308 310 312 323 327 320 318 320 322 336 336 338 339 338 339 341 343 345 347 346 345 345 346 349 350 352 354 354 352 352 353 354
327 327 329 329 329 329 330 330 328 339 341 340 340 340 339 340 343 343 343 342 340 338 338 336 333 330 329 329 331 333 336 336 336 336 329 315 313 312 314 315 322 332 339 339 340 338 337 339 338 319 310 305 306 310 312 318 325 317 313 315 320 331 334 336 337 339 340 340 342 342 342 344 342 340 342 345 345 344 350 351 345 347 345 343 344
328 326 321 323 330 328 327 325 327 326 326 327 326 331 335 331 326 324 328 335 339 338 338 336 333 331 329 329 332 335 338 338 334 334 335 332 321 319 319 323 325 325 338 338 338 335 325 317 312 310 312 310 310 313 318 324 317 312 312 314 331 335 337 339 341 344 338 334 334 334 333 337 339 340 342 342 341 343 346 343 343 342 341 340 341
326 325 325 325 323 327 324 323 324 324 324 324 327 327 324 322 322 320 319 321 325 335 339 338 336 334 332 331 334 334 328 326 325 325 328 331 330 324 322 326 338 339 338 331 327 322 320 319 319 320 323 326 332 336 340 341 335 331 329 331 333 335 337 340 333 328 328 329 331 329 330 332 335 337 337 335 334 336 339 338 337 337 336 336 336
328 325 323 322 324 326 327 326 324 325 321 320 320 323 326 321 317 319 318 315 319 326 330 337 337 337 337 330 324 324 322 320 319 319 318 319 321 324 326 326 330 330 328 324 324 323 327 332 330 322 322 325 327 330 331 334 336 339 339 341 340 340 336 328 327 327 328 327 328 328 330 332 333 329 328 330 333 335 339 338 336 334 335 335 333
322 320 322 324 325 326 327 329 325 321 320 317 316 316 318 320 317 316 317 316 316 318 321 325 326 328 328 327 324 321 320 318 315 314 315 315 316 319 321 322 319 320 321 318 318 321 326 330 329 335 336 338 338 337 337 337 338 338 339 330 330 334 335 336 335 327 326 327 325 325 325 324 324 326 329 328 328 328 331 329 329 328 330 332 330
324 318 319 318 321 328 327 323 322 319 315 317 315 316 315 319 319 316 318 314 312 315 320 321 323 321 322 324 323 319 317 316 315 308 311 305 309 313 317 316 315 317 319 310 315 321 323 327 329 331 332 333 334 336 336 338 337 332 331 328 326 325 325 325 324 324 325 323 322 322 322 322 324 325 323 323 324 326 327 325 325 324 324 324 323
322 319 318 318 321 323 323 324 324 323 316 314 313 314 314 304 310 319 319 316 307 299 304 317 319 318 315 315 318 317 315 315 307 301 298 298 297 298 298 296 296 307 308 306 313 314 321 326 329 329 331 333 334 335 333 332 328 325 327 327 325 324 324 325 325 324 323 322 321 321 321 322 321 320 320 321 322 324 323 323 322 323 321 320 320
321 320 319 319 324 324 322 321 322 323 325 322 317 316 315 313 297 301 309 308 302 295 294 296 304 314 318 311 310 306 306 301 297 297 297 298 296 296 296 296 295 294 297 310 322 324 325 326 326 326 328 332 329 329 327 325 325 323 324 325 325 325 325 324 323 321 321 320 320 320 320 321 319 319 319 321 322 322 322 322 322 321 320 320 319
314 318 321 323 324 325 322 324 322 322 321 323 324 321 318 318 317 300 296 302 301 296 295 294 295 298 307 313 315 308 300 296 295 295 295 295 296 295 295 295 294 294 296 301 319 324 324 324 325 322 322 322 325 326 324 324 324 324 323 323 323 324 322 320 319 320 319 319 318 319 320 321 319 320 320 320 320 320 319 319 319 319 319 318 318
314 316 318 320 322 324 323 323 324 322 322 322 321 323 321 318 316 316 314 300 297 295 295 295 294 295 295 295 297 300 300 297 293 293 293 295 294 295 295 294 294 293 299 311 319 323 324 324 323 322 321 320 321 321 321 322 322 321 322 322 322 322 322 321 320 321 320 319 319 319 319 319 319 320 320 319 319 319 318 317 317 316 315 313 314
316 317 317 317 317 317 317 318 320 318 318 319 321 322 322 324 320 317 316 318 318 310 298 294 295 298 296 295 294 292 291 292 294 295 295 294 294 296 295 301 300 296 303 318 318 319 321 322 323 322 321 322 322 322 321 321 321 320 320 319 319 320 320 319 319 319 319 319 319 319 319 319 320 318 317 317 317 317 315 314 314 313 312 312 312
315 319 320 320 315 315 315 316 316 316 318 318 317 320 322 324 325 324 317 316 317 315 314 313 303 295 304 305 298 293 294 295 296 297 296 292 294 295 303 317 318 315 313 317 321 321 322 321 321 322 321 321 321 321 320 320 320 320 319 319 318 317 317 318 318 318 318 318 318 317 317 317 316 316 316 315 314 313 312 312 312 312 311 311 311
315 314 313 315 315 315 315 316 316 314 315 316 319 321 323 324 324 323 320 324 323 319 317 314 312 309 303 301 298 293 295 299 298 297 294 293 295 303 318 317 317 317 318 319 319 320 319 318 317 316 318 320 321 320 320 320 319 319 318 318 317 316 316 317 317 317 317 316 315 315 314 315 315 315 315 314 314 313 312 312 311 312 312 311 312
313 311 310 312 314 315 317 317 318 318 317 317 318 318 322 321 323 321 322 319 318 318 317 314 313 315 316 319 318 307 304 301 298 296 297 298 301 317 318 317 316 316 317 317 317 316 315 315 315 314 315 314 315 317 319 318 318 318 321 318 316 316 316 317 317 317 314 313 313 313 313 313 313 313 312 311 312 311 312 312 311 312 312 312 312
311 310 309 310 313 314 314 316 319 317 318 319 319 320 319 319 319 319 318 320 319 320 317 318 318 312 310 310 318 316 312 305 304 303 306 307 313 315 315 316 315 314 314 315 316 313 312 312 313 312 312 313 313 313 313 313 314 314 314 315 316 316 319 316 317 314 314 312 312 312 312 312 312 311 311 310 309 309 309 311 310 309 309 310 309
313 315 314 313 314 313 312 315 317 315 319 319 318 319 318 319 317 316 316 316 315 315 315 311 309 309 308 310 307 314 312 308 308 309 313 314 315 314 313 313 312 312 312 312 314 313 311 310 312 312 312 311 312 312 311 311 311 312 312 312 312 311 312 311 310 310 310 309 309 309 309 308 308 308 308 307 307 306 306 306 306 306 305 305 306
310 310 313 314 315 313 313 314 315 317 316 314 313 316 319 317 315 314 314 314 315 313 310 309 308 308 309 309 307 307 309 310 309 309 312 312 312 311 311 311 311 310 310 309 310 311 311 310 310 310 310 310 310 311 311 311 311 311 311 311 310 310 310 310 309 308 308 308 307 306 306 305 305 305 304 304 304 303 303 302 303 303 302 302 303
310 311 315 315 313 309 311 314 315 313 313 313 314 314 313 315 315 316 313 313 314 313 310 307 306 307 306 303 300 301 307 309 310 312 312 312 311 310 310 310 310 310 309 309 309 310 310 311 310 310 310 310 310 310 310 310 310 310 310 310 309 309 307 307 306 306 306 306 305 304 304 304 304 303 302 303 306 303 303 303 302 302 302 302 303
313 313 312 312 313 313 314 315 314 312 313 313 312 312 314 313 312 313 314 314 315 313 310 308 306 307 303 302 300 300 307 310 310 309 308 308 309 310 310 310 309 309 309 308 308 309 309 310 310 309 309 309 309 309 309 308 308 308 307 305 305 305 304 304 304 303 303 302 302 302 302 303 303 303 303 304 302 301 301 301 301 301 301 302 303
317 314 313 313 312 314 315 313 313 311 313 311 311 312 312 311 311 312 313 313 312 312 311 308 308 310 307 304 305 304 306 307 310 308 307 306 306 306 306 306 307 308 308 308 307 307 308 308 308 308 308 308 308 308 307 306 305 304 303 302 301 301 301 302 300 299 299 299 299 301 301 302 302 300 300 301 300 300 299 299 300 300 300 300 301
315 314 314 313 314 313 313 312 313 312 309 312 312 310 309 309 310 311 310 308 307 307 306 306 308 307 307 305 304 305 305 305 305 305 305 305 304 304 304 305 306 307 308 307 306 306 305 305 305 305 306 306 307 307 303 301 300 299 298 298 299 300 299 297 296 296 296 297 298 299 299 300 300 299 299 300 299 298 298 299 299 299 299 299 300
309 310 312 311 313 310 309 311 311 310 312 311 308 308 309 310 310 310 307 306 307 305 305 306 306 306 306 304 304 304 303 303 306 304 303 303 302 302 302 303 305 305 305 306 307 306 305 305 305 305 306 306 306 302 298 298 298 296 296 295 295 296 296 295 294 296 296 297 297 296 297 297 296 296 297 297 299 298 298 298 298 300 300 300 300
311 311 312 310 312 311 310 308 313 309 309 309 307 307 308 307 306 307 307 306 305 304 304 304 304 305 305 303 303 304 303 303 303 304 303 302 301 301 302 303 304 304 304 304 305 307 307 306 305 304 304 304 303 298 297 297 296 296 295 295 296 296 297 296 296 296 295 296 295 295 295 295 295 296 298 297 297 298 297 298 299 300 300 300 301
310 311 311 311 310 311 310 311 308 308 307 306 307 306 305 303 304 307 307 307 303 304 304 303 303 302 302 301 302 302 302 301 301 302 302 302 301 301 302 303 302 302 302 303 304 303 305 305 305 305 305 304 300 297 296 295 295 295 295 294 295 295 295 295 295 294 294 295 295 293 293 293 294 295 295 297 297 297 298 298 299 300 300 301 301
309 310 311 312 310 307 307 306 307 309 306 307 306 305 304 304 303 303 303 305 304 304 302 301 300 300 301 300 302 302 303 301 302 302 300 300 299 300 300 301 301 300 300 300 301 302 303 303 303 302 303 303 301 297 296 295 294 293 293 294 294 294 295 294 293 293 292 292 293 293 293 292 292 293 294 295 295 296 297 298 299 300 300 301 302
309 310 309 309 309 309 307 307 308 303 303 304 305 303 304 302 303 302 303 302 301 300 299 300 299 299 300 301 301 300 301 301 299 299 298 299 299 299 299 300 300 299 299 298 299 300 301 301 302 302 301 301 300 298 297 296 294 293 293 292 293 293 292 293 293 292 293 293 292 292 292 292 292 293 295 295 296 296 297 298 299 300 301 302 302
308 310 310 310 309 306 305 304 302 300 302 300 300 301 302 303 302 302 301 300 299 300 299 299 299 298 299 300 301 299 299 298 297 297 298 298 297 298 298 298 298 297 297 297 298 299 299 300 300 301 301 301 299 297 297 296 294 293 293 292 292 289 290 292 293 293 292 290 290 291 291 292 292 293 293 294 294 295 296 298 300 301 301 301 302
307 308 307 306 305 304 303 301 300 300 299 300 299 298 299 299 299 299 299 298 298 298 299 296 297 298 299 299 302 298 298 297 297 297 297 297 297 298 297 297 297 297 297 298 298 298 298 298 299 299 299 300 299 297 296 295 294 293 292 291 289 288 288 289 289 288 290 291 290 291 292 293 293 293 294 294 294 295 298 300 300 301 301 301 301
Wind_Speed
11 9 10 8 10 10 8 8 7 7 5 8 7 8 6 8 7 7 5 6 5 5 4 4 4 5 5 4 4 5 5 5 5 4 4 4 4 3 3 4 4 4 3 4 3 3 4 3 3 2 1 3 3 4 4 4 3 2 2 3 3 3 4 3 3 5 4 3 3 4 5 5 4 3 4 5 6 6 6 5 4 4 5 5 5
11 9 10 8 10 11 9 9 6 6 5 7 7 6 5 6 6 7 7 7 7 6 6 5 5 5 4 5 5 4 5 5 5 5 5 5 4 5 3 3 4 3 3 3 3 4 3 3 3 3 1 2 3 4 4 4 4 1 0 2 4 4 3 3 3 2 3 3 3 4 4 4 4 3 4 6 7 6 6 5 5 4 5 5 6
11 10 9 9 9 11 10 9 8 7 7 7 8 8 7 6 5 6 8 7 8 8 7 6 6 6 5 4 4 4 6 5 4 5 5 5 5 5 4 5 5 5 4 4 4 4 4 3 3 3 2 3 5 5 4 4 0 3 3 3 3 4 4 4 3 3 4 4 3 3 2 3 3 6 6 6 6 6 6 7 5 5 4 4 5
11 11 9 10 10 11 9 9 11 9 9 7 9 9 9 8 7 6 6 6 7 6 7 7 7 7 6 5 4 5 6 5 4 4 5 6 5 5 4 3 5 4 4 4 5 4 4 3 4 4 3 4 3 5 5 4 1 1 2 2 3 3 4 4 4 3 3 3 3 3 3 4 4 6 6 6 7 7 6 6 5 5 5 5 4
11 11 10 10 9 11 10 10 10 10 9 8 8 9 9 10 9 9 7 6 7 7 6 5 6 6 6 6 5 5 5 6 5 5 5 5 6 5 5 4 4 5 4 4 4 3 4 5 5 4 4 4 4 3 2 3 4 4 3 2 3 3 3 4 5 4 4 5 4 3 3 3 3 5 5 6 6 5 4 4 5 5 5 5 5
11 10 10 9 9 9 10 9 10 11 10 8 8 8 8 8 10 9 9 8 7 8 7 5 6 6 6 5 5 5 5 5 6 5 5 5 6 6 5 5 5 5 4 4 5 5 4 4 4 3 3 3 3 3 3 4 2 3 3 3 3 2 3 3 4 4 4 5 4 5 3 4 3 3 5 4 6 7 7 7 5 4 3 5 5
6 9 8 8 8 8 8 8 9 9 9 8 8 7 8 7 9 11 10 8 7 8 7 7 6 6 6 6 5 5 6 6 5 5 5 4 4 5 4 3 4 5 5 6 6 5 4 4 4 4 5 4 4 4 4 4 4 4 3 4 4 4 4 3 3 2 3 3 3 3 3 3 2 5 6 5 5 4 4 6 4 4 3 3 5
4 2 6 5 5 4 3 3 2 4 7 7 6 5 5 7 7 9 10 9 8 8 7 7 6 6 6 7 5 4 5 5 5 4 4 4 4 3 3 3 4 4 3 2 2 3 4 3 3 4 5 5 5 5 4 4 3 4 5 3 1 1 1 1 1 1 3 3 2 4 3 4 6 4 4 4 4 5 2 0 4 6 7 3 2
4 5 3 2 2 1 1 2 3 3 0 3 4 2 3 1 1 4 9 9 8 7 7 7 7 6 6 7 6 4 5 5 5 5 4 4 3 3 3 4 4 3 3 3 4 4 4 4 4 5 5 6 7 6 6 6 4 4 3 4 3 2 1 1 1 1 2 3 5 4 5 6 6 6 6 3 4 4 2 2 3 3 5 6 6
4 3 5 9 12 14 13 8 7 7 7 6 5 6 6 4 4 5 3 1 2 3 6 6 5 6 7 7 7 5 4 8 14 15 5 3 4 4 2 1 2 3 4 4 4 4 5 5 6 10 11 11 12 11 11 12 9 7 6 4 3 2 1 1 1 2 2 5 6 5 6 6 6 5 4 4 4 2 5 5 6 6 6 6 6
6 5 6 6 6 6 1 7 6 5 5 4 4 6 5 3 4 4 4 4 4 4 4 3 3 2 3 3 3 5 6 6 10 6 14 8 6 5 4 4 4 5 4 4 4 5 4 4 4 5 7 9 8 10 10 12 13 10 7 6 6 4 3 4 4 3 2 3 3 3 4 6 7 5 5 6 4 3 3 4 5 4 3 5 8
4 5 6 6 3 2 1 2 3 2 1 0 2 3 4 4 3 3 3 4 3 3 3 2 1 0 2 3 4 4 4 6 8 2 3 3 5 3 6 5 6 5 5 5 6 5 6 6 4 3 1 1 0 2 4 9 9 10 9 8 8 8 7 6 5 3 3 4 6 6 5 6 6 4 6 5 6 5 5 5 3 3 4 4 4
2 2 4 3 3 5 6 7 7 5 2 2 1 1 2 2 2 2 3 2 3 3 3 3 2 1 2 3 4 2 3 6 5 5 4 4 1 3 4 6 6 6 5 5 4 4 4 4 4 1 2 6 2 3 4 4 8 10 10 9 7 7 8 8 7 6 4 4 5 7 7 5 6 6 3 3 3 5 5 4 3 3 3 5 6
3 4 5 4 3 5 8 9 8 7 4 2 2 2 1 1 2 2 4 4 3 2 2 2 2 3 3 2 4 4 2 1 4 4 4 5 4 3 4 4 4 4 4 3 2 1 1 1 2 3 2 3 2 2 2 3 5 4 4 4 5 5 6 8 9 11 8 6 5 7 8 4 6 4 4 2 3 4 3 4 3 5 5 6 6
6 6 5 4 5 5 6 7 6 2 1 0 2 3 3 3 3 2 2 3 5 5 3 3 3 3 4 3 3 4 2 1 4 1 1 0 4 5 4 4 2 1 2 3 4 5 4 4 3 3 3 4 3 4 2 2 1 2 3 3 3 4 4 5 4 4 5 7 8 8 9 6 6 7 6 4 4 4 3 4 4 4 6 5 5
3 2 5 2 2 2 1 0 1 2 2 1 1 1 1 2 1 1 1 1 2 4 4 4 5 4 3 4 4 3 1 6 5 3 3 2 2 4 6 7 4 1 1 5 5 3 3 3 3 3 3 5 7 8 6 3 2 2 0 1 3 2 1 2 4 4 2 2 3 5 6 5 4 3 4 4 3 4 3 4 3 4 4 5 6
6 3 1 1 2 1 1 1 1 1 1 1 0 0 1 2 2 2 1 1 0 1 2 3 4 6 6 5 6 3 2 3 4 2 3 3 1 4 4 5 4 3 5 5 4 3 2 2 3 3 4 4 5 6 8 6 3 3 3 2 2 2 3 4 8 8 5 4 6 7 8 9 8 7 8 8 6 3 2 4 5 3 5 6 5
6 5 4 2 2 1 2 3 2 2 1 1 1 0 1 1 1 1 2 2 2 2 2 3 2 3 4 6 6 6 4 1 2 2 3 3 1 0 1 4 4 6 6 5 4 3 3 5 6 4 4 4 5 7 8 4 3 3 3 3 3 3 3 4 5 5 7 7 8 8 7 8 9 9 9 8 8 4 2 5 4 3 4 4 5
6 5 4 4 4 3 2 3 3 2 1 1 0 2 3 3 2 2 2 2 2 1 1 2 2 1 1 3 7 6 4 2 1 2 4 4 2 2 3 3 4 4 5 5 4 5 4 6 9 6 5 3 4 6 7 5 3 2 2 2 2 2 2 4 4 5 5 5 5 5 5 7 4 3 4 6 3 2 2 3 2 2 3 4 5
6 6 5 5 6 6 5 4 3 2 2 2 2 1 1 2 4 5 3 3 3 3 2 1 1 2 2 1 4 4 4 2 3 5 6 6 4 4 4 4 3 3 4 4 4 4 4 4 5 5 4 3 4 4 4 3 2 0 1 0 1 1 2 4 4 4 4 5 5 5 5 3 3 3 4 4 5 4 2 1 2 1 3 4 4
7 7 7 7 8 8 7 5 5 5 4 2 2 3 4 1 3 5 5 5 5 4 3 3 3 1 2 2 4 4 4 5 3 5 9 9 10 9 6 5 3 3 3 4 4 4 3 4 3 4 3 1 1 1 1 2 2 1 1 1 1 2 3 3 5 7 4 4 4 5 4 3 4 3 4 4 5 4 4 4 4 2 3 4 5
4 6 7 7 8 8 8 3 4 4 5 5 3 2 2 2 2 3 5 5 5 5 5 5 6 7 7 7 6 4 2 4 4 6 8 9 10 10 7 4 2 2 3 2 3 3 3 2 2 4 5 3 3 3 2 1 2 2 4 4 6 6 3 2 4 4 4 4 5 4 5 4 3 4 4 5 5 5 5 5 5 5 4 3 4
6 5 5 5 6 7 7 7 4 4 5 5 5 6 4 3 2 1 3 4 5 5 6 6 6 6 6 6 6 5 3 1 5 6 6 8 9 9 8 6 5 4 3 1 3 4 2 1 1 4 2 4 4 3 2 2 3 3 6 5 3 3 4 3 3 4 4 4 4 5 4 4 5 5 5 5 5 6 5 4 4 5 5 6 5
4 5 5 4 5 6 6 7 8 4 4 6 6 5 6 6 5 4 3 4 5 5 5 5 6 6 7 6 5 5 1 2 3 5 5 9 8 7 7 8 7 3 2 5 4 4 4 2 1 3 5 5 6 5 4 4 4 8 8 7 4 4 2 2 3 3 3 4 4 5 5 4 4 5 5 5 5 6 4 3 4 4 4 5 5
5 3 4 5 3 3 5 6 6 8 9 10 9 8 8 9 8 8 8 5 3 5 5 6 6 6 6 6 4 3 1 1 5 9 12 10 13 14 12 11 9 7 4 4 4 4 3 2 4 6 7 8 7 6 5 5 7 7 8 7 5 2 3 2 3 2 5 6 4 4 4 4 4 4 4 4 5 5 3 3 3 3 4 3 4
6 6 4 3 2 2 4 4 6 8 9 9 9 8 9 8 8 8 8 6 7 3 5 6 7 6 6 5 4 5 6 5 6 7 7 10 10 13 13 13 14 13 9 7 10 9 11 10 8 7 6 4 3 2 2 2 3 6 8 6 3 3 1 3 6 6 5 4 5 5 5 5 5 5 5 6 7 7 5 4 5 7 7 7 8
5 4 5 6 7 4 1 3 7 7 7 7 7 7 7 9 10 10 9 8 6 7 6 4 2 4 6 6 6 5 4 5 5 5 7 7 7 8 9 8 12 11 8 7 9 7 8 7 7 9 8 8 7 6 6 5 5 4 3 3 1 5 6 5 4 5 4 5 6 5 5 5 5 7 8 7 7 7 7 7 7 7 7 7 6
5 5 6 6 6 7 6 9 6 5 5 5 5 6 6 6 8 8 7 7 6 6 6 6 6 6 7 6 5 5 5 5 5 5 6 6 5 5 6 6 7 6 6 6 7 7 6 7 7 5 4 5 4 2 1 3 1 1 3 8 8 6 7 8 7 5 5 4 5 5 6 7 7 7 6 6 6 6 7 7 7 7 7 7 6
3 4 6 6 7 6 4 3 4 4 5 5 6 6 5 4 6 7 5 3 5 4 5 6 5 5 5 5 5 5 4 4 3 3 3 4 4 5 6 5 5 4 5 7 6 5 4 5 5 5 5 6 5 3 2 3 2 6 8 6 6 5 5 5 6 6 5 7 7 7 7 6 6 6 6 6 6 6 6 6 6 6 7 6 6
4 5 4 4 5 6 6 5 5 4 4 4 5 6 10 9 6 5 3 8 12 13 8 4 3 5 7 5 3 4 4 2 3 0 1 3 3 2 3 4 4 5 6 9 2 2 4 5 5 6 6 5 4 4 2 4 5 6 7 7 6 6 5 6 7 6 6 7 6 7 7 5 6 6 6 5 6 6 6 6 6 6 6 6 6
2 2 4 3 4 5 6 6 5 4 3 4 5 5 4 6 11 11 7 5 6 7 7 7 6 6 7 6 6 9 7 6 3 2 4 3 3 3 4 5 6 5 5 7 3 4 4 6 6 6 7 1 1 5 6 4 5 6 7 6 6 6 7 7 7 6 6 6 6 6 5 4 6 5 5 5 5 5 6 6 6 6 6 6 7
5 5 3 1 3 4 5 6 6 5 6 5 4 4 4 4 2 4 4 3 4 3 7 9 9 9 8 6 5 3 3 2 2 2 3 5 5 5 6 7 6 4 4 3 3 4 3 5 5 5 6 8 7 6 6 6 5 6 7 7 7 7 7 7 4 6 5 6 5 5 5 5 6 5 4 5 4 5 5 6 7 7 8 8 8
4 4 4 5 5 5 5 4 5 5 7 7 6 3 5 2 2 0 1 1 2 5 7 8 8 8 10 10 9 7 4 4 4 3 3 2 3 4 5 5 4 1 3 0 1 3 3 3 3 3 5 6 5 5 6 7 8 7 7 6 6 6 6 5 4 5 5 5 6 6 6 6 7 5 4 5 6 6 7 8 7 7 7 7 7
4 3 4 5 5 5 5 5 5 5 5 5 5 5 3 1 4 4 3 1 1 2 6 8 8 8 8 8 7 6 5 3 2 2 4 2 2 4 4 3 2 4 3 1 1 2 3 3 2 4 4 5 6 7 7 7 6 6 6 6 6 6 4 4 6 6 6 7 7 7 8 7 7 7 7 7 7 7 7 6 6 6 6 6 6
2 5 7 6 4 4 4 5 4 4 3 2 4 4 3 2 2 4 5 4 4 3 2 3 3 5 3 4 5 5 7 9 9 9 4 4 2 6 3 5 6 4 3 3 3 6 7 8 8 7 4 5 6 6 7 6 6 6 6 6 6 6 6 6 6 6 7 7 8 7 7 7 7 7 6 6 6 6 5 5 5 5 5 6 6
2 3 3 5 5 4 3 3 2 1 1 1 2 3 5 3 2 3 3 2 4 4 2 5 2 2 4 3 3 6 9 11 12 11 8 4 2 6 8 7 7 7 8 8 8 8 8 9 8 8 8 8 7 6 6 7 6 6 6 6 6 6 6 6 6 6 6 6 6 6 6 6 6 6 6 7 6 6 6 6 6 6 5 5 5
5 3 3 2 1 3 3 3 2 1 1 2 2 3 2 2 3 3 2 2 2 3 7 6 3 1 3 4 7 7 10 11 11 10 8 7 7 8 8 7 7 7 8 8 8 8 8 8 7 8 8 8 8 7 7 7 7 7 6 7 6 6 6 5 6 5 6 6 6 6 6 6 6 6 6 5 5 5 6 6 6 6 6 8 7
5 4 2 1 0 1 3 3 4 3 2 1 2 3 1 3 3 3 3 3 3 6 8 5 5 5 5 5 9 6 6 9 11 8 6 9 9 8 8 8 8 8 8 7 7 8 7 7 8 8 8 7 8 7 7 7 7 7 6 6 6 6 7 7 8 7 7 7 7 7 7 7 7 6 6 6 6 6 6 6 6 6 6 7 6
4 5 5 4 3 1 1 1 1 2 1 2 2 2 1 2 3 4 4 4 6 7 7 6 5 4 3 2 4 7 8 6 6 5 5 6 7 7 7 7 7 7 7 7 6 6 7 7 6 6 7 7 7 7 7 6 6 6 6 6 6 6 7 6 7 7 8 7 7 7 7 7 7 7 7 8 8 9 9 9 9 9 9 9 8
5 4 4 6 2 1 1 2 1 1 2 3 4 4 3 4 4 4 4 5 6 7 6 6 5 2 1 1 3 4 5 5 4 5 4 6 6 7 7 7 7 6 6 6 6 5 6 6 5 6 6 6 6 6 6 6 6 6 6 6 6 7 8 7 7 7 7 7 7 7 7 7 7 6 6 7 7 7 8 8 8 8 8 8 9
6 5 5 4 4 3 2 1 2 2 2 2 2 4 4 4 4 3 4 4 5 6 6 5 4 2 2 3 4 5 3 4 5 6 6 5 6 6 7 6 6 5 5 5 5 5 5 5 5 5 5 5 5 5 6 6 5 5 5 6 8 8 7 8 8 8 8 7 7 7 7 6 6 6 7 7 7 7 7 7 7 8 8 8 8
8 6 5 5 4 3 3 4 3 2 1 1 4 4 4 3 4 4 4 4 5 6 5 4 4 3 4 11 15 13 8 7 8 9 9 9 8 7 6 5 5 5 5 5 5 5 5 5 5 6 6 6 6 6 5 5 6 7 8 7 7 6 7 7 8 8 8 7 7 6 6 6 6 6 7 6 6 6 7 7 7 8 7 8 7
4 4 4 4 4 4 3 6 4 4 2 4 4 4 2 2 3 3 2 3 5 5 5 4 3 2 5 9 11 10 6 6 7 9 7 7 7 7 7 6 6 4 5 5 5 5 5 5 6 5 6 5 5 5 6 7 7 7 6 7 7 7 7 7 8 7 7 6 5 6 6 5 6 5 6 6 6 6 6 7 7 7 7 8 7
3 2 1 1 1 3 4 3 3 5 5 5 5 2 1 0 0 1 2 6 6 5 5 4 3 4 5 6 7 7 5 5 6 7 6 5 6 6 5 6 6 6 5 5 6 6 6 6 6 5 5 5 5 7 9 7 7 7 6 6 6 7 7 7 6 5 5 5 5 5 5 6 6 6 6 6 6 6 6 6 7 7 7 7 7
5 2 0 1 2 5 3 3 3 3 4 3 2 3 2 2 2 2 6 5 5 4 4 3 3 3 4 5 5 6 5 5 6 6 5 5 5 5 5 5 5 6 6 6 5 5 6 6 6 5 5 5 7 9 8 7 7 6 6 6 6 6 6 6 5 4 4 5 5 5 6 5 5 5 5 5 5 5 6 6 6 8 8 6 7
5 2 0 2 2 4 5 5 3 3 3 2 2 2 2 2 4 6 5 5 4 3 3 2 3 5 6 5 5 5 5 5 5 5 4 4 5 5 4 5 5 5 5 6 6 5 4 5 5 5 4 5 8 8 6 6 6 6 6 6 5 5 5 5 4 5 5 5 5 5 5 6 6 5 8 7 6 6 6 6 6 7 7 7 7
6 2 0 4 5 2 5 5 5 4 4 3 3 2 5 6 4 4 4 5 3 2 2 2 5 6 5 5 5 5 4 5 5 5 4 4 4 5 5 5 6 5 6 6 6 6 6 5 4 4 5 5 8 8 7 6 6 5 5 5 5 5 4 4 4 4 4 5 5 4 5 5 6 6 8 8 6 7 7 7 7 8 8 8 6
4 4 3 3 2 4 5 5 5 5 4 3 1 2 4 4 5 4 3 2 2 3 4 6 6 5 5 4 3 3 4 5 5 5 5 5 5 5 5 5 5 5 5 6 5 6 5 5 5 6 5 5 7 7 7 6 5 5 4 4 4 4 4 5 3 3 3 4 4 5 6 6 6 6 6 6 6 6 7 7 8 8 8 8 7
5 4 6 5 0 1 3 5 5 4 3 2 2 4 4 3 3 3 2 3 5 5 5 6 5 5 5 3 5 5 6 6 6 5 5 6 5 5 5 5 5 5 5 5 5 5 4 4 5 5 5 5 7 7 6 5 5 4 4 3 4 5 3 3 2 2 4 4 4 5 5 5 6 6 6 6 7 7 7 8 8 8 8 7 8
5 5 6 7 2 3 6 5 6 6 6 6 6 4 4 4 3 2 2 5 5 4 4 4 4 4 3 3 4 5 6 5 5 5 5 5 5 5 5 5 4 4 4 3 4 4 5 4 4 4 5 5 7 5 5 5 5 4 3 2 1 2 4 4 4 6 5 4 5 5 5 6 6 6 6 6 6 7 8 9 8 8 7 7 7
2 4 2 5 5 5 5 6 5 6 6 5 4 4 4 4 4 4 4 4 5 4 5 5 4 4 4 5 5 5 5 5 5 5 4 4 4 5 5 4 4 3 3 3 4 5 5 5 5 5 5 5 5 5 4 5 4 3 4 4 3 1 2 4 4 6 7 6 5 5 5 6 6 6 6 6 6 7 9 10 8 7 7 8 8
Wind_Direction
173 176 179 180 165 176 178 186 197 194 182 179 171 177 172 171 174 170 163 173 174 170 185 190 186 183 186 195 191 184 187 187 185 178 181 195 212 219 224 201 199 211 213 243 256 270 283 268 267 254 269 314 300 310 314 297 272 220 145 129 131 144 143 153 197 261 295 254 248 267 288 296 298 291 308 310 312 308 302 284 293 292 297 297 300
169 174 177 184 167 175 179 184 195 191 185 174 167 176 179 175 177 169 173 170 172 179 183 189 190 190 195 195 199 191 193 186 187 180 189 196 211 217 226 184 205 214 216 229 255 260 265 267 252 246 237 241 270 276 276 284 277 243 132 130 167 192 182 150 203 201 266 317 317 293 283 279 283 284 306 309 299 301 292 294 289 276 277 292 312
168 172 173 184 171 173 176 178 188 194 198 181 181 181 185 188 190 173 178 173 175 180 186 188 185 192 200 193 196 190 190 194 192 189 190 192 203 215 218 191 195 212 219 239 249 255 269 269 259 235 240 241 241 245 248 266 268 167 201 188 191 203 194 180 148 215 257 272 253 287 270 292 274 290 298 289 285 279 283 286 279 285 285 285 304
169 172 173 178 172 174 177 176 185 195 202 192 188 187 189 188 189 192 180 168 174 181 181 189 185 190 192 198 194 180 181 193 201 197 192 193 196 205 225 202 205 203 212 227 233 235 235 246 264 249 236 252 251 231 228 234 209 197 200 210 213 229 198 193 192 185 219 246 279 235 273 287 290 288 290 292 288 289 278 284 292 280 277 292 296
172 174 176 176 174 175 182 183 183 193 199 205 202 195 187 184 184 189 186 187 179 182 186 169 159 170 182 193 190 186 183 191 199 204 202 194 194 202 215 212 198 203 213 224 244 237 227 227 239 247 252 260 281 256 239 264 267 236 228 221 229 227 177 191 209 208 217 241 272 272 275 289 274 290 290 287 305 306 301 294 281 290 304 304 307
173 173 178 172 178 176 182 184 186 189 198 203 206 199 200 183 178 182 186 191 180 178 176 181 169 180 188 191 190 195 194 192 195 205 205 196 194 202 203 201 201 211 219 229 243 246 238 226 238 232 227 223 244 265 256 248 210 192 225 262 274 267 241 228 212 218 223 245 258 298 317 285 314 290 285 299 306 309 312 306 318 320 327 331 317
146 171 171 173 176 181 183 186 186 191 195 201 201 204 201 202 178 180 182 186 173 172 173 185 180 182 191 193 198 194 199 201 196 199 212 216 201 189 178 182 214 209 214 229 230 229 229 231 232 232 238 231 232 239 246 253 245 245 223 236 225 216 239 259 264 255 241 259 275 247 282 285 275 305 300 308 304 266 274 316 334 310 333 335 319
57 91 146 150 160 169 175 157 172 192 192 199 200 203 207 207 192 178 178 178 176 179 184 186 185 180 188 196 204 198 194 201 200 198 203 210 201 201 192 202 213 200 205 240 265 265 250 245 242 229 217 225 230 237 232 244 226 232 241 235 212 150 197 225 303 326 328 322 300 302 288 291 314 294 300 332 333 343 331 101 350 328 327 309 258
73 47 32 90 98 84 32 26 25 22 55 145 143 102 25 38 72 147 176 172 181 186 192 187 186 189 186 190 198 201 194 201 202 198 206 200 191 193 209 224 209 210 233 249 257 260 263 254 240 233 232 231 229 229 235 227 228 228 219 174 174 172 191 179 217 247 296 297 294 298 301 304 288 294 312 310 319 277 274 17 318 294 291 324 319
62 71 63 53 33 8 357 7 39 37 35 37 36 56 56 43 59 70 63 57 169 188 187 187 183 187 190 188 191 190 62 26 355 323 210 186 182 173 179 165 209 206 206 231 246 250 257 256 260 259 264 268 264 248 241 245 229 211 206 193 182 167 177 208 257 253 257 278 276 277 292 286 281 280 273 273 286 293 335 347 338 319 335 321 301
34 45 53 67 99 117 347 311 346 31 19 5 46 63 61 56 69 81 93 83 82 87 85 82 76 77 101 103 92 84 124 177 189 249 293 241 178 195 201 211 218 208 198 198 231 242 244 250 257 271 262 253 261 266 267 262 238 222 205 191 182 185 212 236 246 230 224 248 259 272 265 277 281 278 277 291 301 304 294 313 305 320 329 325 314
38 38 52 78 70 346 271 258 275 246 154 5 27 42 51 60 76 95 102 102 101 96 103 126 120 159 108 100 92 94 127 181 222 319 326 303 293 237 197 215 210 205 207 214 222 227 235 243 246 228 213 155 217 267 273 279 251 229 220 214 212 212 201 198 221 237 234 253 267 264 263 262 272 286 293 302 301 317 315 316 302 302 310 302 282
135 113 92 89 168 226 240 245 253 263 238 182 175 89 81 50 55 83 124 134 103 101 100 96 100 103 117 120 133 155 199 186 200 211 257 287 193 218 265 219 206 209 206 216 231 247 259 260 277 28 242 278 0 331 296 286 274 256 247 242 240 226 221 228 224 224 226 229 241 265 254 259 271 273 264 289 318 316 313 310 295 301 282 287 277
83 102 125 126 188 230 213 220 232 240 244 222 164 176 166 198 225 201 141 126 107 100 109 114 105 73 69 117 167 181 159 42 242 208 237 255 239 170 217 261 245 213 189 157 143 105 21 14 56 73 62 70 28 356 330 323 298 280 264 255 254 258 242 224 230 238 235 235 240 249 263 232 251 259 266 262 307 287 288 284 288 296 289 271 273
47 62 72 118 169 196 211 211 217 197 111 132 163 185 186 179 165 134 111 134 143 152 158 144 124 127 111 108 112 125 148 326 240 197 37 237 226 204 209 217 244 116 95 90 92 102 106 114 133 124 128 112 50 5 16 328 305 282 281 274 247 236 228 235 239 230 220 227 234 244 262 269 253 257 260 257 250 244 232 249 263 264 272 278 283
50 39 77 80 147 169 186 24 33 44 57 9 3 122 136 142 120 103 122 166 123 123 131 136 139 140 140 142 136 137 37 360 344 55 80 29 260 210 203 193 177 148 68 78 88 96 121 129 132 130 102 73 17 6 354 332 340 10 55 268 271 253 260 254 248 238 286 296 248 248 256 273 294 267 274 277 282 273 289 304 305 272 280 304 308
53 22 62 69 46 83 117 106 120 87 97 118 175 128 99 76 115 149 170 243 175 115 148 140 141 146 152 158 155 144 122 352 332 354 78 60 35 217 181 154 145 127 94 99 95 80 85 102 72 79 90 76 26 16 1 6 20 5 342 339 336 348 346 345 41 76 42 333 308 292 286 282 277 260 257 257 240 254 279 311 295 306 330 321 314
57 39 26 27 358 22 107 147 178 223 245 217 235 185 138 148 173 183 166 181 179 158 117 103 108 137 164 161 162 155 142 322 305 349 47 70 149 237 166 127 120 121 120 111 106 81 36 68 75 57 64 66 33 31 14 31 46 23 23 2 4 354 28 358 344 343 344 351 346 335 309 281 271 274 266 253 246 229 229 290 293 355 327 321 307
31 41 32 31 47 42 26 52 48 36 64 81 195 192 201 204 201 205 147 93 74 66 76 102 85 16 84 155 169 139 131 147 140 92 74 65 82 82 78 78 100 107 118 113 111 112 93 67 69 74 82 86 62 54 35 49 57 25 9 354 5 355 45 347 339 327 332 335 331 325 311 303 309 329 335 345 14 228 222 257 306 34 318 303 301
24 20 19 27 24 23 10 28 40 52 17 14 8 55 176 203 177 162 146 145 130 100 77 101 216 201 191 156 111 125 123 92 30 31 72 71 79 96 80 97 100 105 104 113 119 115 112 118 91 93 88 86 86 86 72 39 94 315 349 344 332 261 9 335 317 317 323 319 303 298 295 309 333 357 357 2 350 357 10 263 233 236 261 272 276
28 29 27 30 27 17 3 359 28 21 17 36 34 3 329 70 110 120 124 118 116 124 140 126 140 146 211 156 127 113 136 115 79 39 47 56 71 85 80 78 68 89 99 101 114 106 97 98 118 134 141 130 322 356 83 22 329 299 265 236 249 25 324 315 322 331 311 307 310 310 311 333 355 360 8 356 347 339 340 334 320 266 247 272 294
29 38 35 29 20 13 3 356 49 35 22 16 38 5 0 21 102 121 118 120 119 115 94 84 81 72 67 64 58 42 77 108 111 67 62 64 65 78 90 82 48 10 68 119 128 115 109 105 117 168 186 197 224 273 313 5 312 295 265 283 5 16 347 316 302 300 303 302 304 306 322 351 17 21 3 356 340 333 329 322 318 314 298 269 264
28 34 50 39 32 19 359 359 23 45 19 13 16 3 349 22 57 103 132 119 104 94 96 90 85 80 73 70 69 50 10 29 80 78 73 74 70 74 83 86 49 65 62 86 104 97 98 82 98 133 247 304 300 301 325 315 301 254 272 304 346 330 303 294 291 300 295 302 314 319 342 20 37 10 357 346 337 332 329 328 343 342 355 357 339
56 33 9 14 32 28 8 13 12 15 38 16 5 10 7 3 25 35 75 120 115 111 107 101 97 99 98 93 108 117 91 301 93 99 86 70 60 61 71 73 73 58 85 72 71 72 59 48 36 301 294 283 292 296 299 285 269 277 288 299 298 269 248 266 279 277 302 328 2 21 29 21 20 0 346 333 328 330 321 358 359 348 358 338 331
28 27 35 16 17 28 35 31 30 43 49 40 27 15 25 25 29 18 24 13 107 134 130 127 124 120 123 125 130 138 139 17 22 30 38 51 41 36 41 41 44 39 53 54 43 35 18 322 283 290 287 294 295 299 292 284 265 254 260 257 253 230 227 265 309 357 42 43 39 24 8 357 347 338 320 328 333 337 330 342 340 339 337 329 322
45 33 20 2 353 22 38 36 54 57 52 45 41 41 46 29 20 11 18 20 22 44 153 148 141 137 140 155 130 83 49 29 27 21 19 26 28 25 33 33 31 35 48 36 17 16 5 341 327 311 306 286 281 277 288 266 293 280 271 238 211 216 78 52 55 55 45 32 31 14 346 340 347 339 344 349 350 335 328 338 349 344 346 348 346
63 35 17 23 5 340 32 24 32 34 53 56 45 35 55 65 42 24 13 359 20 38 36 60 81 138 128 87 75 65 49 30 23 17 20 19 19 14 19 21 18 21 22 14 5 358 339 336 316 303 284 280 271 264 271 286 288 302 308 332 61 70 82 76 72 66 44 30 22 14 358 352 350 5 360 357 355 351 353 357 0 349 342 340 344
56 58 35 28 14 357 18 62 66 60 40 43 49 41 28 55 64 52 13 347 355 36 37 45 56 70 91 100 88 71 50 38 26 16 12 15 8 15 22 23 20 12 11 1 342 328 328 320 314 311 312 306 315 315 285 258 219 329 16 61 71 63 68 72 68 56 46 45 39 19 13 6 12 4 2 6 2 0 5 13 13 357 355 353 4
82 61 54 48 21 2 36 51 56 71 65 54 53 47 18 19 73 72 54 49 348 357 56 49 54 55 55 66 89 77 60 45 25 13 23 25 29 14 25 21 357 3 357 349 332 326 331 333 343 332 303 290 291 313 285 243 49 72 82 82 76 77 63 56 56 46 40 42 32 21 12 12 11 3 3 10 3 358 0 10 9 10 358 13 17
70 72 79 57 44 34 9 23 42 70 86 79 72 60 42 45 33 76 66 40 26 348 355 79 26 73 77 44 32 101 103 128 143 122 357 8 15 7 322 303 300 312 328 323 291 333 334 335 325 310 296 254 241 250 316 87 94 81 80 84 75 66 59 50 46 46 41 38 31 22 12 17 14 357 1 7 354 356 355 14 3 5 16 10 10
87 90 79 65 56 75 61 24 15 26 61 118 113 108 118 47 40 43 56 68 55 354 5 22 37 76 100 94 40 49 77 96 99 13 358 353 341 309 306 303 310 314 348 359 25 1 343 349 336 334 323 310 74 81 91 93 91 93 90 86 75 63 58 58 50 49 44 31 19 17 10 22 6 354 358 357 355 348 353 360 8 9 14 9 17
55 27 31 81 77 86 77 78 50 14 360 28 87 123 93 92 119 107 108 88 95 68 21 34 50 67 83 102 124 63 58 41 20 339 319 313 303 312 317 326 318 335 18 24 357 335 355 351 345 5 24 46 39 45 52 58 53 59 72 73 61 61 67 62 51 57 45 33 16 8 2 354 355 340 344 349 352 352 0 5 12 17 17 19 18
47 44 30 27 20 58 71 66 83 63 29 1 2 41 129 137 167 107 348 63 86 97 68 50 48 56 69 68 76 103 128 170 207 231 233 245 291 293 298 288 285 56 100 65 284 306 329 339 354 31 46 47 37 44 49 56 65 66 66 67 61 54 67 64 52 50 39 29 23 9 356 350 342 339 344 359 5 7 14 22 22 25 21 15 6
22 29 37 35 44 33 30 50 53 61 46 3 343 352 16 205 201 160 182 193 318 6 80 50 29 34 37 39 45 28 12 8 315 194 186 203 261 286 288 280 218 191 195 215 213 278 315 340 353 61 68 66 63 65 65 67 68 71 65 64 67 66 63 49 48 38 31 22 19 10 4 4 4 8 10 15 22 33 31 22 19 17 13 6 0
17 39 51 51 39 38 42 34 43 39 63 34 327 338 308 309 327 164 188 182 170 165 166 89 357 13 4 350 332 322 327 326 326 316 14 64 336 316 328 29 42 29 51 4 6 15 26 28 19 10 29 71 83 86 82 77 74 69 68 65 59 52 45 45 45 39 37 36 35 30 22 20 13 12 17 24 25 30 25 18 10 7 3 355 356
107 74 50 26 13 19 23 15 61 42 11 293 291 303 316 322 16 40 80 116 158 163 122 102 134 310 312 318 299 314 327 340 9 49 94 111 25 32 53 43 55 44 39 38 39 39 41 37 30 26 26 34 31 41 53 65 62 63 59 61 57 49 49 48 45 46 49 50 38 28 23 19 16 17 14 15 20 19 16 11 360 350 351 345 344
123 102 65 50 11 328 339 317 305 242 253 293 299 303 320 2 6 23 44 72 72 108 122 102 107 42 344 14 10 346 347 6 56 85 81 68 51 55 62 62 56 50 43 42 44 43 42 35 33 33 32 30 30 27 34 43 37 38 43 47 47 45 39 43 45 52 52 48 34 28 22 14 19 22 21 16 10 11 3 0 357 355 352 348 350
120 131 144 157 304 303 278 294 277 305 304 239 271 292 320 9 25 34 15 0 37 62 98 108 85 68 35 352 352 359 345 3 29 67 36 50 55 58 62 59 53 50 44 38 48 52 47 38 35 35 30 27 30 30 34 35 34 37 34 34 36 35 36 38 38 39 38 38 34 31 27 23 17 6 8 15 6 0 355 354 356 350 347 346 348
134 143 147 160 201 240 271 262 269 299 351 4 11 2 15 60 43 29 37 54 79 88 87 81 77 77 56 353 344 339 348 17 8 10 33 57 62 67 73 62 56 53 48 39 35 53 57 47 39 38 32 30 28 29 29 29 28 31 29 33 35 30 33 38 42 39 39 34 33 32 35 25 16 10 16 20 17 12 7 4 359 358 351 348 342
145 157 171 186 211 223 255 246 255 60 53 31 17 14 12 51 37 48 42 54 73 94 97 95 97 90 9 359 9 2 16 357 345 345 49 70 72 70 68 68 65 60 52 42 37 42 65 61 45 41 37 30 29 31 33 28 30 28 29 33 33 35 34 38 43 37 36 37 35 31 33 26 18 13 15 18 12 4 359 353 348 344 340 331 326
158 171 177 188 184 173 228 234 106 105 50 32 35 50 43 38 35 37 43 46 73 97 96 99 99 112 73 59 13 22 32 355 350 15 58 83 79 78 69 67 66 64 58 52 40 39 45 52 46 40 39 38 31 32 32 29 25 26 29 36 43 45 43 42 39 37 35 35 32 26 22 18 10 10 8 2 358 357 349 345 340 333 326 320 314
159 171 166 175 186 182 212 149 133 114 143 87 77 63 45 33 30 16 38 52 66 99 109 100 98 89 81 56 42 36 37 34 42 49 49 45 45 48 53 54 53 57 63 59 48 41 34 39 40 38 37 33 27 30 31 26 22 39 48 49 46 46 45 42 41 37 32 24 22 16 13 9 5 8 359 355 350 347 338 337 331 325 319 316 318
107 111 152 176 179 210 158 127 142 154 115 89 78 76 62 49 14 9 16 58 49 68 108 123 149 111 63 60 63 57 51 46 58 64 61 53 48 40 35 29 23 32 61 62 54 46 41 42 45 41 42 34 31 23 29 39 50 56 53 55 52 46 43 45 41 32 22 14 7 5 3 0 2 357 344 346 341 336 330 325 318 315 314 316 318
119 152 182 192 198 135 112 117 118 117 126 136 138 139 132 136 260 286 71 72 70 69 68 67 60 65 70 63 62 60 54 47 62 72 69 63 55 45 34 29 24 23 32 36 40 44 50 53 47 39 36 32 20 37 62 57 54 56 55 55 56 55 48 47 35 21 10 3 359 360 358 357 351 344 334 331 329 322 315 309 309 309 311 307 307
114 100 42 221 155 124 121 110 115 113 122 132 152 154 151 160 195 116 91 86 80 70 62 50 54 47 75 79 73 68 55 50 79 83 73 65 62 52 41 28 33 33 25 18 14 42 60 61 53 39 28 23 30 65 69 62 61 61 60 62 61 54 55 49 25 6 1 2 3 357 350 345 339 328 318 310 310 307 305 302 302 306 303 299 299
105 112 92 286 214 166 157 155 146 142 143 124 110 126 167 133 75 78 87 90 92 84 66 54 45 54 68 72 70 69 60 56 77 90 83 75 64 53 44 36 33 35 27 26 17 20 52 69 67 58 39 35 62 79 70 73 65 64 57 58 54 52 53 51 21 17 7 5 0 352 338 332 323 316 315 312 306 300 294 294 293 289 294 300 298
112 125 152 285 275 187 160 150 146 136 111 94 73 65 76 100 117 107 108 115 116 136 155 98 76 82 86 76 75 80 85 75 69 79 93 89 72 54 39 42 38 30 23 23 23 19 19 32 41 47 47 52 87 87 80 71 70 64 61 52 57 51 45 36 30 16 358 344 338 329 318 310 307 304 307 305 301 301 303 299 302 307 309 308 301
48 37 357 287 299 108 112 114 125 111 96 95 100 102 99 104 108 114 113 104 110 103 84 76 74 74 69 53 42 51 77 81 76 71 67 65 60 54 47 45 41 34 28 25 17 18 26 32 33 35 36 45 90 98 91 89 84 78 67 54 46 55 53 49 31 12 339 326 318 312 305 299 292 294 295 297 296 296 297 300 307 310 308 310 310
53 28 326 289 206 92 126 134 135 138 147 148 155 124 115 103 100 101 109 106 102 96 87 87 86 77 69 61 65 61 57 55 53 53 55 54 52 52 47 42 42 38 34 16 7 11 25 28 34 30 31 41 85 101 102 103 99 87 78 64 52 41 23 43 40 348 331 318 305 298 293 287 290 290 293 295 297 297 293 292 295 303 304 303 305
142 175 228 228 159 98 82 72 80 83 81 74 68 68 90 96 99 97 111 100 87 89 99 107 109 105 95 84 84 82 76 67 58 48 55 61 57 48 41 37 43 46 33 7 354 10 20 20 26 26 24 31 88 98 102 104 100 103 102 108 118 45 22 353 344 342 336 314 308 299 294 292 289 287 290 291 294 297 299 298 299 304 305 304 304
207 205 118 72 75 84 84 86 84 79 75 72 76 79 71 73 67 51 58 83 100 98 89 84 81 77 67 68 79 81 84 78 61 53 55 62 60 56 43 38 24 27 17 18 17 20 22 16 10 10 12 19 76 98 99 116 117 121 143 148 135 71 10 347 333 318 318 322 303 295 289 290 291 295 298 303 303 298 300 304 309 315 317 315 312